Location: Dötzum
(52.0808°N, 9.8063°E)
Time: 03:53:45
(UTC+00:00)

USA 306 - Pass Details

Date: 27 May 2022
Orbit: 545 x 556 km, 54.0° (Epoch: 20 June)

Event Time Altitude Azimuth Distance (km) Brightness Sun altitude
Exits shadow 00:02:22 31° 176° (S) 986 3.5 -16.0°
Maximum altitude 00:03:23 36° 144° (SE) 888 3.5 -16.0°
Drops below altitude 10° 00:07:14 10° 78° (ENE) 1,846 5.8 -15.9°
Sets 00:09:36 0° 69° (ENE) 2,747 6.9 -15.8°
